Location: B?ogocice
(50.2413°N, 20.2361°E)
Time: 23:26:20
(UTC+00:00)

CZ-2D R/B - Pass Details

Date: 15 June 2024
Orbit: 789 x 844 km, 98.8° (Epoch: 18 July)

Event Time Altitude Azimuth Distance (km) Brightness Sun altitude
Rises 00:10:03 0° 20° (NNE) 3,374 7.4 -13.8°
Reaches altitude 10° 00:12:34 10° 27° (NNE) 2,428 6.0 -13.6°
Maximum altitude 00:17:38 41° 98° (E) 1,162 3.1 -13.3°
Enters shadow 00:22:21 11° 167° (SSE) 2,293 4.0 -13.0°
